Theta_e
301 301 301 302 302 302 301 302 302 301 301 301 301 301 301 302 302 302 301 302 303 304 304 303 303 303 303 304 304 303 303 303 302 302 301 303 306 307 308 307 307 307 305 306 309 308 307 307 308 310 310 311 310 310 310 310 310 311 314 315 314 315 314 313 314 312 313 315 314 312 312 314 314 315 314 315 320 334 344 343 344 345 342 343 344 342 340 339
301 301 301 301 301 302 301 301 302 302 301 300 300 300 300 299 301 302 299 299 302 303 303 303 303 303 303 303 302 302 303 302 302 302 302 305 307 309 310 309 307 307 305 306 309 310 309 308 308 309 309 310 311 311 310 310 310 311 315 314 311 315 313 312 313 312 313 314 313 313 313 313 314 313 314 316 314 327 348 350 346 348 347 346 346 345 344 342
301 301 301 301 301 302 302 301 301 301 302 302 300 299 299 300 300 302 301 298 299 301 303 303 303 303 303 302 299 300 303 302 302 302 306 309 308 309 309 310 308 306 306 306 309 310 310 310 309 309 309 310 310 310 310 310 310 311 314 312 311 315 314 312 313 313 313 313 312 313 314 312 314 314 314 316 312 320 343 352 349 347 346 347 346 345 344 344
301 300 301 301 301 302 302 302 301 301 301 301 301 300 300 300 300 301 302 300 298 299 302 303 303 303 303 301 298 300 302 301 302 302 308 309 307 309 309 310 309 306 305 305 308 310 310 310 309 309 309 309 310 310 310 310 311 311 312 312 313 314 315 314 314 315 314 313 313 312 314 314 315 315 314 314 314 318 325 333 345 347 346 346 346 344 343 343
300 300 300 300 300 301 301 301 301 302 301 299 301 302 301 300 300 299 301 302 300 297 300 302 303 302 303 302 298 299 302 302 304 306 308 309 307 308 308 310 309 305 305 306 309 311 311 310 309 309 309 308 309 310 310 310 311 312 311 312 313 313 313 314 314 315 315 315 314 313 314 316 315 315 315 314 315 317 316 317 328 337 343 346 345 344 343 343
299 299 300 300 299 300 299 300 300 301 300 298 299 301 301 302 301 299 298 299 299 297 296 299 302 302 302 302 298 298 302 303 305 308 308 308 307 306 307 309 309 305 305 307 309 311 310 310 309 308 309 309 309 309 310 311 311 312 312 311 313 313 314 315 314 315 315 315 314 314 315 315 314 314 314 314 315 316 316 316 317 322 335 345 345 344 343 344
299 299 299 300 300 300 299 299 299 299 298 297 299 301 301 301 301 301 300 297 295 295 296 296 298 301 302 302 300 298 301 303 302 306 307 307 307 306 306 307 308 307 306 307 308 310 310 310 310 308 310 311 310 309 309 311 311 311 311 311 312 313 314 315 315 315 315 314 314 314 314 313 313 314 314 314 315 316 317 317 316 320 333 344 346 343 342 343
299 299 299 300 300 300 300 300 299 299 299 298 299 300 301 300 300 301 301 300 298 297 297 295 296 299 301 302 301 299 300 302 299 302 303 305 306 305 305 306 307 308 308 308 309 310 310 310 310 309 310 311 309 309 309 310 310 310 311 311 311 312 313 315 315 315 314 314 314 313 312 312 313 314 314 313 315 317 317 317 319 325 336 345 346 344 343 342
299 299 299 300 300 300 300 300 300 300 300 300 299 299 300 300 300 300 300 300 300 299 298 297 296 297 301 302 301 300 301 300 300 301 302 304 304 304 304 305 306 307 307 308 310 310 310 310 310 309 309 309 309 310 310 310 310 310 310 310 311 311 312 313 312 312 312 312 312 312 311 312 313 313 313 314 317 319 320 322 326 331 339 345 345 343 343 342
299 299 299 299 300 300 300 300 300 300 300 300 299 298 298 298 298 298 298 298 299 300 300 298 296 296 300 302 302 301 301 300 302 301 301 302 303 304 304 305 306 306 305 306 308 309 310 309 310 310 309 309 309 310 310 310 310 310 310 310 310 310 311 312 311 311 311 312 311 312 312 312 312 313 313 314 316 319 323 328 334 338 342 345 345 344 343 342
298 299 299 299 299 299 299 299 299 299 299 298 298 297 297 297 296 297 298 297 297 300 301 300 297 296 299 302 301 302 300 300 301 299 300 300 301 303 304 304 305 305 304 305 306 308 309 309 309 309 309 309 309 310 310 310 310 310 310 310 310 310 310 310 311 311 311 312 312 312 312 311 311 312 312 314 315 319 325 330 339 343 344 345 344 343 342 341
298 299 299 299 299 299 299 299 298 298 298 297 297 297 297 296 296 296 297 298 298 299 301 301 299 296 299 301 301 301 298 300 300 298 299 298 298 300 301 303 303 303 303 303 305 307 308 308 309 308 308 308 308 309 310 310 311 311 311 312 312 310 310 310 309 310 310 311 312 312 312 312 312 312 313 315 314 320 329 336 343 345 344 345 344 343 342 342
298 299 299 299 299 299 299 299 299 298 298 297 297 297 297 296 296 296 298 299 299 299 300 301 300 297 299 301 301 298 298 299 298 298 298 298 299 298 298 300 301 302 302 303 305 306 306 307 308 307 308 308 308 310 309 310 311 311 311 311 312 311 312 311 309 310 310 310 312 312 313 314 314 313 313 315 314 324 339 343 345 346 345 345 344 343 343 342
299 299 299 299 299 299 299 299 299 299 298 297 297 297 297 297 296 296 299 300 299 300 299 301 301 298 299 300 299 297 298 298 297 298 299 300 301 300 299 299 300 301 302 303 305 306 306 307 307 307 307 307 308 309 309 310 311 311 311 311 312 312 314 312 308 310 310 310 312 312 312 313 314 314 314 315 313 325 342 346 346 346 345 345 344 344 344 343
299 299 299 299 299 299 299 299 299 299 298 298 297 297 297 297 296 297 299 300 299 300 300 301 299 298 300 300 298 298 298 298 298 299 300 301 302 302 302 302 301 301 301 304 306 306 307 307 306 306 306 307 308 308 311 313 313 312 310 311 311 311 314 313 309 310 311 310 311 312 313 312 313 314 314 315 314 324 340 346 347 346 346 346 345 345 344 344
299 299 299 299 299 299 299 299 299 299 299 299 298 298 298 297 297 298 299 299 300 300 301 301 299 298 300 300 298 298 299 299 299 299 300 302 303 303 303 303 302 302 302 305 306 306 307 306 306 306 306 308 308 308 312 313 312 313 310 311 312 310 312 313 311 310 310 312 310 311 314 315 315 312 312 315 315 324 339 344 346 346 347 347 346 346 346 346
299 299 299 299 300 300 300 300 300 300 300 299 299 298 298 296 297 299 299 300 301 301 300 299 299 299 300 300 299 299 299 299 300 300 301 302 302 302 302 303 303 303 303 305 306 305 306 306 306 307 307 308 308 308 311 311 311 313 310 311 312 309 310 311 312 310 309 312 311 310 312 315 317 313 311 313 314 327 339 343 346 346 346 347 347 347 347 346
299 299 299 300 300 300 300 300 300 300 300 300 299 299 298 297 298 299 300 301 301 301 300 299 300 301 301 301 300 300 300 300 300 301 301 301 301 301 302 303 304 304 304 304 305 305 306 305 306 308 308 308 308 308 310 310 310 312 311 312 312 309 310 310 311 311 310 311 311 312 311 312 316 314 312 311 313 330 339 340 344 345 345 346 347 348 347 347
299 300 300 300 300 300 300 300 299 300 300 300 300 298 298 298 298 299 301 302 301 301 301 301 301 301 301 300 300 300 300 300 300 300 300 300 301 302 303 303 304 304 304 305 305 305 306 306 306 308 308 307 307 307 309 310 311 313 311 312 312 310 310 310 312 312 310 311 310 311 311 311 313 313 313 311 311 324 335 340 344 345 345 346 347 349 348 347
299 300 300 300 300 300 300 299 299 300 300 300 300 298 298 298 298 300 301 301 301 301 301 301 301 301 301 301 300 300 300 300 300 300 300 300 302 304 304 304 304 304 305 305 306 306 306 307 307 307 307 307 307 307 309 311 311 311 310 311 312 311 311 311 312 312 311 311 311 311 312 313 313 313 313 310 309 316 325 336 344 345 346 347 348 349 347 347
299 299 299 299 299 299 299 299 300 300 300 300 299 299 299 298 298 299 300 300 301 300 300 300 300 300 301 300 300 300 300 300 301 301 300 301 302 304 305 305 305 305 305 305 306 306 306 307 307 307 308 308 308 309 310 311 310 310 310 311 311 310 311 311 311 312 310 311 314 312 311 313 314 314 313 310 311 313 315 328 341 344 346 346 347 348 346 346
299 298 298 298 299 299 299 299 300 301 300 300 299 298 298 298 298 300 300 301 301 300 300 300 300 300 300 300 299 299 300 300 300 300 300 300 301 302 304 305 305 305 305 305 306 306 306 307 307 307 310 310 308 310 311 311 311 310 309 310 311 310 310 311 311 311 310 311 316 314 312 314 314 314 314 311 312 313 311 319 333 341 345 346 347 347 345 345
298 298 298 299 299 299 299 300 300 300 300 299 298 298 299 299 300 300 300 301 301 300 300 300 300 300 299 299 299 300 300 300 300 301 300 300 301 301 303 305 305 305 305 306 306 307 307 307 307 308 310 310 309 310 312 312 312 312 310 311 312 310 309 312 312 312 311 311 314 315 313 317 317 315 315 311 308 311 312 312 318 333 341 343 344 344 343 344
297 298 298 299 299 300 300 300 300 300 299 299 298 299 300 300 300 301 300 300 300 299 299 299 299 299 300 300 300 300 300 300 300 301 300 301 302 302 303 305 305 305 305 305 306 306 307 307 306 308 309 310 310 310 311 311 311 312 311 312 312 310 310 312 312 313 313 311 313 313 312 317 320 317 316 313 309 310 313 311 315 329 339 340 342 342 340 341
297 298 299 299 300 300 300 300 300 300 299 299 299 300 300 300 301 300 299 299 298 298 298 299 300 300 301 301 301 300 300 301 301 300 301 302 303 303 305 305 305 305 305 305 306 306 307 306 306 307 308 308 310 310 310 310 310 312 312 312 311 310 310 310 311 315 314 312 314 311 311 319 324 321 317 314 312 312 315 317 319 329 341 341 341 343 340 341
298 299 300 300 300 301 301 301 301 300 299 298 298 299 300 300 300 299 299 298 298 298 298 301 302 301 301 302 302 301 301 301 301 300 301 302 304 305 306 305 305 305 305 305 306 306 306 306 306 307 308 308 309 310 310 309 310 311 311 311 311 310 310 309 310 313 315 315 313 310 312 319 322 322 321 318 314 314 319 325 325 329 340 342 340 341 340 341
299 300 300 301 301 301 301 301 301 300 300 299 298 299 300 300 299 298 298 298 298 299 299 301 303 302 302 302 303 302 300 301 301 301 301 302 303 305 305 306 304 304 305 305 307 307 307 306 306 307 307 308 308 309 310 310 310 311 311 310 311 310 309 309 310 311 316 316 315 314 313 314 317 320 322 318 314 318 327 333 332 330 337 340 339 340 338 339
300 301 301 302 302 301 301 301 301 301 300 300 299 300 300 299 299 298 298 298 299 300 301 301 302 302 302 303 303 303 302 302 302 302 301 301 303 304 305 305 304 304 305 306 307 307 306 307 306 306 307 308 308 309 311 310 311 313 311 310 311 310 309 310 311 312 314 314 315 318 314 312 320 326 324 318 315 322 337 342 337 332 335 337 338 338 337 336
301 301 302 302 302 302 302 301 301 302 301 301 300 300 300 299 298 298 298 299 300 302 302 302 302 302 302 303 304 304 303 302 302 302 301 301 303 304 305 305 304 304 305 306 307 306 306 307 306 305 307 308 309 311 311 311 312 311 309 311 312 310 311 312 312 311 312 312 312 315 313 312 319 326 322 318 320 327 336 341 335 331 333 335 337 338 337 336
301 302 302 302 302 302 302 302 301 302 301 301 301 300 300 299 298 297 298 299 300 301 302 303 303 304 303 304 304 304 303 302 302 302 302 302 303 304 305 305 304 304 304 304 306 306 305 306 306 306 306 308 310 310 310 312 312 309 308 310 310 311 313 315 315 312 310 313 313 314 315 311 314 323 321 319 330 336 334 338 335 330 332 334 336 337 337 336
302 302 302 302 302 302 302 302 301 301 301 301 301 300 299 298 298 298 299 301 301 302 303 303 303 304 304 304 305 304 302 302 302 302 303 303 303 304 304 305 305 304 304 304 305 305 304 305 307 307 307 308 310 309 309 311 311 309 309 311 311 312 313 312 313 312 310 315 317 315 315 310 312 324 326 320 328 332 331 338 341 336 332 332 334 336 337 336
302 302 302 302 301 302 302 301 301 301 301 301 300 300 300 299 298 299 300 302 303 304 304 304 303 304 304 304 305 304 303 302 303 303 303 303 304 304 305 306 307 306 304 303 304 304 304 305 306 307 307 307 309 309 308 310 310 309 310 312 312 312 312 312 312 313 313 315 315 312 311 311 313 319 320 316 318 321 324 329 333 335 332 331 334 335 336 336
302 302 302 302 301 301 301 301 301 301 301 300 300 300 300 300 300 300 300 302 304 304 304 303 304 304 304 304 304 304 305 304 303 303 303 303 304 304 304 305 306 307 307 305 304 304 305 306 306 306 308 308 308 309 309 309 310 309 310 311 312 312 311 311 311 312 314 316 314 310 311 313 315 317 316 316 315 313 315 318 323 328 329 330 333 334 336 337
302 302 302 302 302 301 301 301 301 301 300 300 300 300 300 301 302 301 301 302 303 303 303 303 304 304 305 304 303 304 307 306 303 304 304 303 304 304 304 304 303 306 309 306 304 305 306 308 308 307 307 308 308 308 309 310 309 309 310 310 311 312 313 312 312 313 315 315 312 309 312 316 317 319 321 318 315 311 310 315 323 327 328 330 333 333 335 335
302 302 302 302 302 302 301 301 301 301 300 300 300 300 300 301 302 301 302 302 302 303 303 303 304 305 305 304 303 304 307 307 304 303 304 303 304 305 304 305 303 304 306 306 305 305 305 309 310 307 307 307 307 308 308 309 310 309 309 310 310 313 318 317 315 320 320 316 313 312 315 321 319 318 322 326 327 324 322 324 327 329 331 332 333 333 334 334
302 302 302 302 303 302 302 301 301 301 301 300 300 300 300 301 301 301 302 303 302 303 303 303 305 306 306 305 304 304 306 308 306 304 304 303 304 305 304 305 304 303 305 309 310 307 306 310 309 306 307 307 307 309 308 309 312 310 308 310 310 312 320 317 312 319 321 315 316 315 314 320 318 316 324 333 339 338 334 333 331 331 332 332 333 333 333 334
302 302 302 302 303 303 302 301 301 301 301 300 300 301 301 300 300 300 301 302 302 303 304 305 306 306 306 306 305 304 304 307 308 306 304 304 305 305 304 304 304 304 306 308 310 309 309 311 310 306 307 308 307 309 309 308 311 310 308 311 310 309 317 320 316 318 318 315 318 315 312 316 317 320 329 330 333 338 337 337 334 331 332 332 333 333 333 334
301 302 302 302 303 303 302 302 301 301 301 300 301 302 301 301 301 301 301 302 302 303 304 305 306 305 306 307 306 305 304 306 309 308 304 304 306 305 304 305 304 304 304 303 306 310 309 310 311 307 307 308 307 308 310 308 308 310 310 310 312 313 316 317 317 317 315 313 316 313 313 316 316 323 329 324 329 343 338 336 337 335 333 332 332 333 333 333
301 302 302 302 302 303 302 302 302 301 301 301 302 302 302 302 302 302 302 303 303 304 305 305 305 305 305 306 306 305 304 306 309 310 306 304 305 305 304 305 305 305 304 303 307 310 309 310 311 308 307 307 308 309 309 309 308 309 310 308 312 318 317 314 315 318 316 315 318 314 313 318 319 325 330 327 334 344 338 336 337 334 333 332 332 333 333 333
301 302 302 302 301 302 303 302 302 301 302 302 302 302 302 302 303 303 303 304 304 304 305 305 305 305 305 306 306 306 305 306 308 311 309 306 305 304 304 305 306 305 304 304 306 308 309 310 311 310 308 306 307 309 309 309 308 308 310 310 309 311 313 313 314 314 316 321 323 317 315 323 326 326 329 332 339 341 341 342 339 333 332 333 333 333 333 333
301 301 302 302 301 302 303 302 302 302 302 302 302 302 303 303 304 304 305 305 305 305 305 304 304 304 305 305 306 306 306 308 309 310 311 307 304 304 304 304 306 305 304 305 306 307 309 310 311 312 309 306 308 309 309 310 309 308 310 310 310 311 313 314 313 312 315 319 321 320 320 326 327 323 327 334 336 334 337 340 338 332 331 332 333 333 333 333
300 302 303 301 301 302 302 302 302 302 302 303 303 303 304 304 305 305 305 306 306 306 305 304 304 305 305 305 306 306 307 309 310 310 311 310 308 307 304 304 305 304 306 307 307 309 311 309 309 312 311 309 310 310 310 311 309 309 311 310 311 314 315 318 320 317 312 311 315 318 320 326 330 326 328 335 334 329 327 330 332 330 330 333 332 333 333 333
299 301 302 301 301 302 303 302 303 302 302 303 303 303 303 304 305 305 306 306 307 307 306 305 305 306 306 305 305 306 308 309 310 309 309 311 311 309 304 303 304 305 306 307 307 309 310 308 308 312 313 311 311 310 309 310 309 309 311 310 311 312 315 325 332 324 314 313 316 315 316 328 336 329 329 333 329 326 323 325 329 329 330 333 332 333 334 332
299 300 302 301 301 302 303 302 302 302 302 302 302 302 303 304 305 306 306 306 307 307 307 307 306 306 305 305 305 306 308 309 310 309 309 312 313 311 306 303 303 305 306 307 309 309 310 311 310 312 313 310 310 310 308 309 310 310 312 310 309 311 313 319 323 317 313 317 320 317 320 331 334 330 335 338 334 335 330 324 328 330 330 333 332 333 333 332
300 301 301 300 300 302 303 302 302 302 302 301 301 302 304 305 306 306 306 307 307 307 308 308 307 306 305 306 306 307 308 309 310 310 311 313 314 312 309 307 305 305 305 308 308 307 312 315 313 317 320 315 314 315 312 312 311 310 312 310 309 312 311 315 318 314 313 315 316 322 330 334 334 335 341 343 340 343 334 324 326 330 331 333 332 332 333 333
300 300 300 300 300 302 302 301 301 301 301 301 302 303 304 306 306 305 306 308 308 307 308 309 308 307 306 307 308 309 308 308 309 310 312 313 315 314 312 311 310 306 305 310 310 308 314 316 316 321 323 321 323 322 317 315 312 311 312 309 310 311 311 316 319 317 318 317 316 328 333 327 331 340 344 345 344 343 338 329 327 328 330 332 332 332 333 333
299 299 299 299 300 301 301 300 301 301 301 301 302 303 305 305 305 305 307 308 308 308 308 309 308 309 309 309 309 310 309 309 309 310 311 312 314 315 311 311 312 309 307 311 311 309 312 314 316 319 318 318 323 322 314 312 313 312 313 311 311 313 313 315 318 321 322 316 319 333 331 322 333 347 345 344 343 340 339 332 326 327 330 331 331 332 333 333
299 299 299 299 300 300 301 300 300 300 300 302 303 304 305 305 304 305 306 306 307 308 309 310 309 309 310 309 310 310 310 310 311 311 311 312 312 313 313 311 310 310 309 311 314 313 312 313 316 318 317 316 320 321 316 313 315 314 313 312 312 315 316 313 319 326 321 314 322 333 330 330 343 347 339 338 337 335 333 329 326 329 331 330 331 332 332 333
298 298 298 298 299 299 299 299 300 301 301 302 303 304 304 304 304 304 304 305 305 307 309 310 309 310 310 309 310 310 310 311 312 311 311 312 311 313 316 313 311 312 311 310 315 315 313 317 319 318 318 319 320 321 316 315 321 321 319 318 315 315 317 316 323 327 319 317 330 332 331 339 344 337 332 330 327 326 327 326 327 329 330 330 331 332 332 333
297 297 298 298 298 298 299 299 300 300 301 302 304 304 303 303 304 303 303 304 305 306 308 309 309 309 309 309 310 310 310 310 310 310 309 310 311 313 315 315 315 319 318 314 314 311 311 319 323 322 323 322 320 321 318 318 325 325 324 326 322 317 316 318 325 324 317 323 334 330 330 340 336 327 326 325 323 325 327 326 327 328 329 330 331 332 333 333
296 297 297 297 298 299 300 300 299 300 301 303 303 303 302 302 303 302 303 304 304 306 307 307 307 308 308 309 310 311 309 308 309 309 308 309 310 312 313 313 314 319 322 321 315 311 313 317 319 325 329 321 317 321 321 320 323 325 325 325 325 321 315 315 321 321 316 325 334 328 330 338 331 322 323 325 324 327 327 325 327 328 329 331 331 332 333 333
296 296 297 297 298 299 300 299 299 300 303 303 302 301 301 301 301 302 304 305 305 306 306 306 307 309 310 311 311 311 310 309 309 309 308 309 310 311 312 312 312 314 318 321 317 313 317 318 316 324 327 319 319 324 322 318 323 326 323 319 321 323 318 318 324 323 320 326 332 329 329 330 324 321 327 329 326 327 328 326 328 330 329 331 332 332 333 333
Wind_Speed
18 18 18 18 20 21 20 21 21 21 20 20 20 19 19 19 20 20 19 17 18 20 21 22 23 22 21 21 21 22 25 28 29 28 27 19 11 11 15 18 19 16 13 16 17 16 18 20 21 20 17 14 13 13 16 16 14 11 4 4 7 5 6 6 7 6 3 2 2 1 2 4 4 4 5 8 6 7 6 5 5 11 16 13 14 15 15 21
19 19 19 19 20 21 21 21 21 22 21 21 21 20 19 19 19 20 20 18 17 17 19 21 22 23 22 21 20 20 25 27 30 31 21 11 7 9 13 17 19 21 20 19 19 17 16 18 19 18 16 13 11 14 15 15 16 10 3 5 9 5 6 7 7 6 5 4 1 5 6 2 3 5 8 7 8 8 4 3 2 5 8 9 11 11 15 23
20 20 20 20 21 21 22 23 22 22 22 22 22 21 20 20 20 20 20 19 18 16 17 20 20 22 24 23 19 18 23 27 30 24 7 4 6 6 13 17 16 19 23 21 19 17 14 14 15 17 17 13 13 16 14 13 14 10 5 6 8 5 5 8 7 9 11 6 2 6 10 9 10 9 8 6 8 8 5 5 4 5 6 8 10 15 21 27
20 21 21 21 21 21 22 23 23 23 22 23 22 21 21 21 20 20 20 20 20 17 16 18 19 20 22 25 19 16 22 24 20 8 10 7 4 4 9 12 12 17 21 21 19 16 13 12 12 15 16 11 13 15 11 13 12 7 9 6 5 7 5 10 13 13 13 7 3 6 10 13 16 13 9 5 5 6 6 7 7 10 12 14 16 19 25 28
21 21 21 22 22 21 22 23 23 23 23 25 23 22 22 22 21 20 19 20 20 18 16 15 17 19 20 22 18 16 16 11 4 8 14 7 4 1 5 4 10 17 20 21 19 15 14 13 12 13 12 7 10 11 8 18 15 4 8 6 5 8 6 11 17 15 14 11 8 7 7 13 16 12 8 3 2 7 9 9 10 11 15 17 19 22 26 30
21 21 20 22 22 22 23 23 24 24 26 28 24 22 22 22 23 22 20 20 20 19 17 15 15 17 19 20 18 14 8 5 3 11 10 4 2 2 6 4 6 16 21 22 20 16 13 13 12 10 8 4 8 8 6 19 19 5 4 6 8 10 5 8 14 14 13 11 8 6 9 13 11 9 7 6 9 14 15 16 18 17 16 19 21 24 28 31
21 21 20 21 22 22 23 23 24 25 27 27 24 22 22 23 24 22 21 21 20 19 17 16 15 15 17 19 18 13 10 16 9 7 8 7 5 5 5 5 1 11 18 20 20 17 13 13 13 9 6 3 6 7 8 16 18 11 4 3 10 14 11 12 13 12 12 9 9 10 10 10 6 8 8 9 17 22 22 24 24 19 14 20 23 26 28 30
20 21 21 21 22 22 23 24 24 25 26 25 24 24 24 25 24 23 22 21 20 19 17 16 15 13 14 18 16 11 17 24 14 8 14 14 12 11 8 5 1 5 11 15 17 16 13 12 14 11 5 4 6 6 11 12 11 11 7 2 5 11 16 20 19 16 15 13 14 14 11 11 13 13 11 17 26 25 21 22 20 14 14 22 25 27 28 29
21 21 21 22 22 23 23 24 24 25 26 25 25 26 26 27 25 24 23 21 21 19 18 16 14 12 11 16 13 9 19 21 12 12 16 16 18 15 11 7 3 2 4 9 13 14 12 11 15 14 5 6 8 5 10 11 6 7 9 7 5 7 11 15 16 13 12 12 12 9 7 12 17 13 10 16 18 14 13 13 11 10 16 23 25 26 28 30
21 22 22 22 23 23 24 24 25 25 26 27 27 28 28 28 26 25 24 24 23 20 19 16 14 11 10 14 9 7 16 13 8 11 11 13 16 14 10 8 6 5 4 6 9 11 13 12 13 15 8 6 6 5 8 9 5 5 11 13 11 12 14 14 14 13 12 11 11 9 8 14 17 8 5 13 14 12 12 9 8 12 17 22 23 24 25 27
22 22 23 23 23 24 25 25 26 27 28 29 30 30 29 28 27 25 24 24 23 21 19 17 14 10 12 13 10 13 17 10 10 14 13 15 16 14 12 9 9 9 9 8 7 9 12 13 11 10 8 5 4 4 7 10 7 4 7 8 10 12 16 17 15 14 10 7 11 11 9 14 13 4 6 18 20 16 12 7 9 15 17 20 21 21 23 24
23 23 23 24 25 25 26 27 28 29 29 30 30 30 29 28 27 24 22 22 22 21 18 17 15 11 12 16 22 24 22 15 16 21 22 24 24 23 19 14 13 13 14 13 8 8 10 13 12 11 8 5 3 2 5 10 10 7 3 2 5 5 9 13 13 14 10 4 8 7 6 11 8 5 9 20 18 12 11 9 12 16 17 19 20 21 22 24
24 24 24 25 26 26 28 29 30 31 30 29 29 30 29 29 27 23 20 20 22 22 20 17 17 14 13 20 29 31 31 27 26 25 22 21 23 24 22 20 19 16 17 15 10 9 9 10 11 14 12 6 2 2 4 4 8 8 4 2 4 3 6 9 10 11 9 7 10 7 5 10 6 7 13 19 16 10 11 12 15 17 19 20 21 22 23 23
25 25 26 26 27 28 29 30 31 32 30 28 28 29 29 29 27 22 19 21 21 21 20 16 16 15 15 23 30 31 30 27 24 20 13 12 13 13 13 16 19 19 17 15 12 9 9 8 7 10 14 11 7 6 6 3 3 5 3 2 4 4 6 6 7 10 7 9 16 12 6 10 6 6 10 13 14 13 15 16 17 18 20 22 23 23 23 23
26 26 26 27 28 29 29 29 29 30 30 27 28 29 30 29 25 20 18 20 19 19 18 14 14 13 14 23 29 25 21 20 18 14 10 10 10 7 4 7 12 16 16 15 13 10 9 7 7 6 7 11 11 6 4 2 2 2 5 4 5 5 5 6 4 11 9 8 16 14 5 8 7 8 14 14 12 15 16 18 19 20 21 23 23 23 23 23
27 27 26 27 28 28 28 29 28 29 29 28 29 29 30 28 23 18 19 19 17 17 15 11 13 12 9 14 18 16 16 17 15 11 8 7 10 10 8 9 9 11 15 16 13 11 10 7 6 6 5 6 7 2 3 1 3 3 5 4 5 6 3 4 5 8 12 7 10 12 6 4 5 10 18 18 16 17 16 16 19 21 22 23 24 23 24 24
27 27 27 27 28 28 29 29 29 30 30 30 30 29 30 27 20 16 16 14 11 10 8 7 7 10 13 15 15 16 16 12 11 10 8 9 14 16 15 14 10 9 15 16 14 13 11 8 5 5 6 4 4 5 3 5 8 4 2 3 3 5 5 3 5 5 10 10 7 9 7 5 6 8 10 13 18 19 16 16 19 21 22 24 24 24 26 28
28 27 27 28 28 29 30 30 31 30 30 31 30 30 30 24 16 13 11 8 6 5 2 5 4 4 12 16 14 17 18 14 13 14 15 16 19 19 15 13 10 7 11 12 13 14 10 8 5 3 4 5 5 8 8 7 7 5 4 4 2 3 7 7 5 4 8 9 8 8 7 8 9 10 9 9 16 20 18 18 20 21 23 24 25 26 28 30
28 28 28 29 29 30 31 32 33 31 31 31 29 30 26 18 13 8 6 6 5 2 3 7 8 6 10 15 19 24 26 25 24 23 24 22 18 15 12 11 9 7 9 8 8 12 10 4 4 5 7 10 9 10 9 3 6 9 6 5 4 4 5 6 5 6 7 7 7 7 6 7 10 10 11 11 12 18 16 15 17 20 22 25 26 27 30 32
27 28 29 29 29 30 31 32 33 31 30 29 30 28 19 14 11 5 7 13 15 15 17 18 18 21 25 29 33 32 30 30 26 24 24 19 11 8 7 7 7 7 8 6 5 10 11 4 7 10 8 9 8 8 9 2 5 9 7 5 6 4 3 4 4 5 4 5 6 7 7 8 11 10 10 12 9 11 11 11 15 20 23 25 26 27 30 33
28 29 29 29 30 30 30 32 32 29 28 27 26 20 13 13 8 7 15 20 20 18 22 26 25 30 34 35 35 32 28 27 23 21 18 12 7 4 3 7 6 4 6 6 6 7 10 8 10 8 5 8 8 6 7 4 3 6 6 6 5 5 4 5 4 3 2 4 4 4 7 8 10 10 9 8 5 6 10 13 15 21 24 24 26 28 29 30
28 29 30 29 29 30 29 30 30 29 26 22 19 15 15 13 7 10 17 16 18 18 22 28 29 32 35 34 31 29 25 21 22 25 20 15 14 8 5 8 5 4 6 8 6 6 8 10 8 6 4 7 8 7 7 7 4 2 3 6 4 5 3 4 4 3 1 4 4 2 7 8 10 9 8 5 4 7 15 19 21 25 25 23 26 28 29 30
30 30 29 28 28 30 28 27 29 27 21 17 16 15 12 8 6 13 16 13 19 22 21 24 26 28 30 25 18 17 19 15 18 26 21 15 17 16 11 6 5 5 7 10 10 8 7 7 7 8 6 7 7 8 9 6 6 3 3 5 3 3 3 4 5 5 1 2 1 4 4 5 6 5 6 7 9 10 14 19 21 25 26 26 29 31 32 33
30 30 29 28 28 29 28 26 25 21 18 17 14 8 5 5 9 15 14 8 11 15 16 15 16 20 20 14 9 9 15 14 13 16 13 15 17 16 13 8 6 5 7 12 12 9 6 4 8 11 8 8 7 8 10 7 6 5 4 4 3 3 5 4 3 4 3 3 0 4 1 5 5 4 5 5 6 8 10 12 16 21 25 28 29 32 34 35
29 29 29 29 28 28 27 24 20 18 19 14 5 1 3 7 10 12 10 4 6 8 9 8 7 10 9 6 8 10 11 12 18 15 8 17 19 12 9 9 8 6 9 11 9 8 6 4 8 13 10 10 8 7 10 9 6 5 5 5 5 5 4 1 3 4 2 4 2 2 2 5 5 4 6 4 2 6 6 7 13 18 22 24 26 31 34 35
29 29 29 29 28 27 24 19 17 18 16 9 2 2 4 6 8 9 6 3 4 4 3 4 3 4 3 2 6 8 5 6 16 18 14 17 18 13 8 7 6 5 7 8 4 4 4 3 5 10 12 12 9 7 9 10 7 4 6 8 6 5 2 2 4 4 2 4 3 2 4 5 5 5 6 4 4 6 5 4 8 15 21 25 29 34 36 37
29 29 29 28 26 24 20 16 16 16 12 8 5 3 4 4 6 7 4 2 3 2 1 3 2 3 4 4 5 3 3 4 7 13 19 18 17 13 8 5 4 4 5 6 4 2 6 8 4 6 11 11 10 8 7 11 8 4 6 11 8 5 4 2 5 3 2 2 4 2 4 2 4 6 6 2 3 5 6 5 6 11 21 27 32 36 38 40
28 28 27 25 23 20 17 15 15 13 11 9 6 3 4 5 5 3 2 2 2 1 2 2 4 7 9 10 9 10 11 10 6 5 17 19 16 8 4 4 5 5 7 8 6 2 7 11 7 5 9 8 7 6 7 10 6 4 7 12 9 6 5 4 5 1 1 2 4 5 1 2 5 6 5 3 2 4 6 8 8 11 22 29 34 36 38 40
28 26 24 22 20 18 15 12 11 11 10 8 5 4 5 5 3 2 2 1 2 1 2 2 4 8 10 11 12 15 15 10 3 2 10 17 15 6 2 5 5 5 8 8 6 2 4 13 12 6 6 6 5 6 9 11 5 4 8 10 7 5 4 4 3 0 3 2 5 5 1 2 4 6 4 2 2 5 7 8 8 12 21 28 30 33 35 36
27 23 21 20 18 16 14 11 8 9 10 9 6 6 6 4 2 2 0 1 1 1 3 2 3 5 6 7 6 7 6 5 5 4 9 12 13 7 3 6 5 4 5 5 5 4 1 10 14 7 5 5 6 6 8 11 7 4 6 6 6 4 3 4 2 2 2 4 6 6 4 2 3 6 4 3 4 6 6 6 6 8 16 24 28 32 34 35
25 20 17 17 16 15 14 12 11 10 9 8 6 5 5 2 3 2 2 1 1 4 3 3 5 4 6 8 2 3 3 3 4 6 8 5 8 7 2 5 3 3 3 2 4 6 4 3 6 6 9 8 7 7 7 10 9 6 5 5 5 3 3 4 3 3 3 6 5 6 7 4 3 6 4 5 6 6 7 6 8 9 15 25 29 31 34 35
22 16 14 14 14 13 12 12 12 10 9 5 4 4 2 2 1 2 2 3 3 3 2 5 8 7 10 9 2 1 1 1 2 4 6 5 6 5 2 4 3 3 3 3 3 4 4 3 2 3 13 13 7 5 5 7 8 5 5 6 5 3 2 2 2 1 4 5 3 4 5 2 5 8 8 10 10 9 9 10 12 13 17 25 29 31 32 32
19 13 12 12 11 11 10 10 9 8 7 4 4 3 2 1 2 3 3 2 1 3 3 6 11 11 9 5 2 2 1 1 2 3 5 6 6 4 2 2 3 4 3 4 4 2 1 3 4 3 8 12 10 7 6 7 8 7 6 7 7 5 4 6 5 2 2 3 2 2 2 2 4 5 9 13 13 11 10 14 16 17 21 25 27 27 27 28
17 10 10 10 10 10 8 8 7 5 5 4 3 3 2 1 3 3 4 3 3 5 6 7 12 12 5 3 3 2 0 0 2 4 4 6 6 4 3 3 3 2 3 4 4 4 4 2 5 5 4 10 12 8 7 7 7 7 4 5 5 4 5 5 4 4 3 2 1 1 2 3 3 4 7 9 10 10 10 15 16 17 21 22 21 21 24 27
16 7 8 11 10 11 9 7 7 4 3 4 2 2 0 2 3 2 4 4 3 6 8 10 10 7 3 2 4 2 1 1 3 5 4 6 5 3 3 3 4 2 2 4 2 3 3 3 5 7 6 10 11 6 7 9 7 6 3 4 4 5 5 3 3 5 4 2 1 1 3 4 4 6 6 2 4 6 4 8 10 12 16 17 19 23 26 28
15 4 6 12 12 12 10 8 6 4 3 3 2 1 2 3 3 2 2 3 4 6 11 11 4 2 4 2 2 3 3 1 3 3 3 6 4 3 4 2 4 5 3 4 3 3 3 3 4 8 7 8 11 9 8 9 6 3 4 4 4 5 6 5 2 1 4 4 3 1 3 4 3 5 6 4 4 5 2 4 7 10 14 17 20 24 27 28
15 4 4 12 13 13 12 8 6 5 4 2 1 3 2 3 4 3 4 6 8 7 7 6 2 3 5 3 2 4 5 3 0 1 2 4 3 4 5 2 3 8 7 4 2 2 5 2 4 8 9 8 12 14 8 8 8 5 6 6 3 3 3 4 2 3 4 4 3 1 4 3 1 3 6 5 3 2 0 3 4 7 11 16 21 23 25 25
17 5 3 12 14 13 13 9 6 6 4 0 3 5 2 3 4 5 7 9 8 6 3 3 2 2 3 4 3 4 4 3 2 0 3 3 2 4 6 2 2 7 8 5 1 2 4 2 4 8 11 6 8 11 6 8 9 6 6 6 4 3 1 2 3 1 2 3 2 1 1 3 3 4 5 4 5 5 3 3 5 7 11 16 20 21 22 23
14 4 3 12 14 13 13 10 7 6 3 1 3 4 2 4 7 9 12 11 7 4 2 2 1 1 3 4 3 3 2 1 2 2 3 3 2 4 8 6 4 6 7 7 3 2 0 2 2 6 11 7 5 7 7 7 5 5 7 7 4 3 3 3 3 2 3 3 2 1 1 3 5 5 6 8 9 7 6 5 7 9 11 15 18 20 22 23
12 3 2 11 15 12 12 10 6 3 2 2 4 3 3 6 8 12 14 10 5 3 2 1 1 2 3 3 3 3 2 2 2 1 1 3 2 2 6 8 4 3 7 7 4 2 2 0 1 2 7 8 5 6 8 8 6 6 7 7 5 2 2 3 1 1 3 3 2 2 0 5 6 4 7 8 7 8 9 9 9 10 14 18 19 20 21 21
12 3 3 12 14 11 12 8 3 2 2 3 4 4 6 7 8 13 14 8 4 5 4 3 3 3 3 3 3 3 3 2 1 1 1 3 3 1 5 10 7 3 5 4 3 2 1 0 1 0 4 6 5 4 6 8 8 6 4 4 5 4 3 4 2 1 2 3 3 4 2 6 6 4 6 6 5 7 8 7 6 9 16 19 19 19 20 20
10 2 4 12 12 10 11 4 2 2 2 4 6 7 11 11 8 9 10 6 4 4 5 4 4 3 2 2 3 3 3 3 1 1 1 2 3 2 6 13 11 7 6 3 3 4 2 2 1 1 4 5 4 5 9 10 9 5 3 3 5 5 4 5 4 2 1 2 2 4 2 6 6 4 5 5 4 5 7 7 5 5 9 12 13 15 18 20
9 5 6 11 10 9 8 2 2 3 2 7 11 12 13 9 4 5 6 5 5 3 2 3 2 2 1 2 3 3 3 3 1 1 2 2 3 5 8 14 13 8 5 3 3 4 3 1 1 2 2 1 1 1 7 10 9 5 4 5 5 6 5 5 4 4 4 3 1 2 1 5 6 3 3 5 5 5 8 10 7 2 4 9 13 15 18 20
12 11 7 11 11 7 5 1 3 5 6 9 11 10 10 6 3 6 7 5 4 3 2 3 1 1 2 3 4 4 3 2 1 2 2 1 3 6 6 13 14 8 5 4 4 4 3 1 1 1 2 3 3 3 4 7 7 5 5 5 6 7 7 4 1 3 3 4 4 4 3 6 6 4 3 2 3 4 6 8 9 6 7 11 15 17 20 22
12 9 8 14 13 4 3 3 3 5 8 11 10 9 8 4 4 9 9 6 5 3 3 4 1 2 3 4 4 5 3 2 2 2 2 2 2 5 3 8 11 7 6 8 8 7 4 2 2 4 4 5 5 4 4 5 5 2 4 7 6 8 11 6 2 3 2 3 4 5 4 6 6 5 5 6 4 4 4 3 7 8 10 15 18 21 23 25
8 3 6 14 12 4 3 6 3 3 6 9 8 6 6 6 9 13 10 5 4 3 4 4 1 2 3 3 3 3 3 3 4 3 2 2 3 3 2 3 3 4 9 12 11 7 2 1 3 4 4 5 5 5 5 6 5 2 5 9 8 8 10 7 5 3 4 3 2 5 5 3 7 6 4 6 6 5 4 2 2 5 11 17 20 23 25 26
5 2 3 8 7 4 5 6 3 3 7 8 4 4 7 9 9 9 7 3 4 6 5 3 2 2 2 3 3 3 3 3 4 4 4 3 3 4 5 5 3 7 13 12 10 6 2 2 3 4 5 6 4 5 7 10 9 7 8 10 8 7 8 7 6 5 5 6 2 7 4 2 7 6 5 6 4 4 4 1 5 9 14 18 21 23 24 26
6 4 4 5 5 3 4 7 9 10 11 9 3 3 8 11 9 7 6 5 8 8 4 2 2 4 6 6 5 4 4 4 2 2 4 3 4 5 2 1 1 8 12 7 5 5 1 3 4 2 2 4 3 4 6 9 7 7 11 12 10 9 10 10 8 7 7 7 6 6 6 5 6 5 5 5 3 3 2 2 7 13 17 20 22 23 24 26
7 5 6 7 6 7 9 14 16 13 10 9 4 3 8 12 11 8 4 4 7 5 3 3 4 6 8 6 5 4 3 3 3 1 3 5 6 5 2 5 3 2 5 3 2 2 1 3 4 0 1 3 5 1 5 8 7 4 5 7 9 10 11 10 7 5 6 5 5 6 7 6 7 6 6 5 3 2 4 7 11 16 20 22 23 24 25 27
10 8 10 12 10 10 12 13 12 8 7 7 4 4 7 9 11 11 7 5 6 5 3 6 8 9 9 8 6 4 4 3 4 3 2 5 5 4 3 2 2 3 2 2 1 1 2 4 3 3 2 5 7 5 7 10 10 7 6 6 5 5 6 5 3 3 4 1 1 4 2 5 6 4 4 3 0 5 7 9 12 17 21 23 23 24 26 27
13 12 13 12 8 7 8 8 7 5 4 3 4 6 8 8 11 14 9 6 6 6 6 9 12 10 8 9 8 7 6 5 6 8 6 5 5 3 3 2 2 4 3 1 1 1 2 3 2 3 4 5 5 5 8 12 13 10 8 10 8 4 3 2 2 3 4 3 4 5 1 5 5 3 2 0 5 6 5 7 12 16 20 23 23 23 25 26
17 17 14 9 6 4 5 6 5 5 3 2 6 9 9 11 13 12 8 3 5 9 11 11 12 9 6 8 8 8 8 8 10 13 14 13 11 9 7 6 3 1 1 0 1 1 2 1 1 2 3 2 4 3 4 8 10 6 5 5 4 1 2 2 2 3 0 4 6 4 4 5 4 3 4 3 5 5 4 7 13 16 20 23 25 26 27 28
Wind_Direction
345 341 342 338 335 337 337 337 336 334 331 327 327 323 321 322 318 311 302 304 312 314 314 315 317 314 311 310 307 307 309 308 307 303 297 296 303 286 268 255 238 226 220 219 218 218 218 216 211 210 211 207 209 207 203 202 190 183 176 203 216 193 192 185 180 196 181 223 266 185 190 203 262 321 344 336 312 306 313 259 233 213 219 233 231 233 224 204
347 345 344 341 339 339 338 337 335 335 331 329 331 327 323 319 319 316 303 294 304 312 311 312 316 317 315 312 308 310 311 309 306 301 298 293 266 268 276 263 239 225 223 218 213 215 217 219 213 208 205 199 202 202 200 198 192 189 130 202 220 187 187 182 168 193 209 211 249 321 316 304 267 316 343 334 319 326 315 248 232 212 218 222 222 210 198 195
348 348 346 344 342 340 339 337 335 332 330 332 332 332 329 324 323 324 314 298 295 307 313 311 314 315 314 315 311 310 313 311 307 302 283 227 240 265 279 268 248 226 221 215 210 213 215 218 215 208 203 198 199 196 195 193 195 202 182 214 228 183 197 207 197 209 223 239 26 318 308 305 289 304 327 315 317 318 274 256 232 194 188 182 187 184 186 188
347 348 346 342 341 339 337 337 336 332 330 331 331 332 330 328 325 323 322 312 299 297 308 313 311 311 312 316 313 309 316 314 308 277 173 175 212 246 279 267 238 221 216 210 206 208 208 207 204 200 198 199 203 199 198 192 186 196 198 217 210 177 205 222 223 229 241 269 294 291 308 301 293 302 305 298 325 308 279 282 258 227 207 181 176 182 186 183
345 345 343 338 338 338 336 335 334 332 331 330 330 329 328 327 325 322 321 319 309 295 295 305 309 309 309 314 312 310 322 324 303 170 170 174 173 229 339 288 210 202 205 201 199 199 200 201 193 191 193 193 199 201 210 200 192 191 212 217 183 176 205 228 230 238 253 271 280 287 294 284 293 303 287 239 232 271 285 311 305 272 240 208 187 185 187 184
341 341 339 336 337 336 334 332 330 329 328 329 328 325 325 324 322 322 319 317 314 300 291 291 302 307 307 312 310 306 310 280 207 160 176 190 180 0 14 357 187 189 196 193 196 198 198 202 194 189 186 187 207 206 205 203 204 222 233 211 204 198 201 231 227 233 248 256 262 265 270 279 299 309 284 228 239 270 285 300 310 303 265 224 196 189 190 189
337 338 337 335 335 334 332 330 328 326 327 330 329 326 324 320 319 320 320 319 318 311 300 286 289 300 304 308 308 306 270 257 253 181 219 251 249 293 342 347 135 185 191 191 199 200 201 206 199 191 173 195 219 212 207 207 213 225 242 201 211 216 225 241 237 240 251 247 256 266 275 283 288 294 292 266 271 284 293 296 301 299 259 217 199 196 196 195
335 335 335 333 332 331 330 330 329 328 329 331 329 325 321 319 319 317 317 317 318 318 310 293 283 289 301 306 312 313 267 262 278 264 255 258 261 277 292 304 315 187 190 195 204 202 205 207 202 195 177 215 207 197 207 213 228 225 228 248 217 221 229 242 249 255 260 261 267 269 267 267 270 279 282 279 286 294 296 297 296 282 233 208 202 200 199 196
335 334 333 332 331 330 328 328 327 327 327 327 325 321 317 315 314 314 314 313 314 313 310 306 288 279 290 298 310 305 271 275 293 274 255 256 264 272 276 270 256 238 206 207 210 207 210 208 207 202 198 233 215 205 199 201 235 215 208 230 238 244 242 245 251 254 258 263 266 266 265 269 274 280 278 277 292 311 310 307 290 248 210 201 202 203 201 196
335 334 332 331 329 327 326 326 325 324 323 322 321 317 313 310 308 310 312 314 313 307 305 306 294 275 269 284 295 276 276 291 300 281 274 275 274 271 264 255 252 279 284 243 217 213 213 208 209 211 228 254 222 223 197 189 223 197 196 218 228 242 253 255 256 256 255 261 257 253 268 273 273 266 260 275 288 306 309 309 264 220 199 196 200 202 200 194
334 333 331 329 328 326 325 325 324 322 321 321 320 317 314 310 308 307 311 314 310 305 299 297 297 270 257 270 251 251 274 288 290 291 299 297 289 276 262 250 260 278 288 275 229 213 215 209 207 212 229 248 229 241 227 216 234 222 188 218 236 237 249 250 250 252 245 259 247 234 261 271 266 227 241 273 279 283 281 265 222 203 191 192 195 198 197 194
334 332 330 329 327 326 325 325 324 322 323 324 322 318 316 312 309 308 311 310 302 301 292 290 292 260 254 259 244 257 276 280 290 290 288 288 283 275 270 259 262 270 278 279 239 204 209 209 213 220 221 228 223 224 252 234 230 245 221 240 271 256 253 238 235 239 221 233 234 211 275 269 243 184 239 270 273 263 247 221 198 193 189 188 191 195 196 196
333 331 330 328 326 326 326 326 325 324 325 325 321 318 317 313 311 312 311 302 296 299 293 286 282 260 255 257 258 274 281 283 292 288 286 293 285 277 273 263 259 259 264 270 246 206 203 207 217 233 236 243 235 219 307 271 206 222 224 218 266 288 270 228 212 219 203 212 207 180 267 260 246 223 234 259 260 230 204 191 187 189 188 187 189 194 196 196
333 331 329 327 327 327 327 326 325 325 326 324 319 316 315 314 314 314 306 297 296 301 296 282 268 256 249 258 273 285 284 286 290 286 301 326 310 288 272 262 257 253 253 257 251 221 199 203 219 241 245 242 256 296 331 337 180 175 170 199 213 219 264 247 192 176 181 217 194 177 247 253 266 257 238 252 243 212 188 182 188 189 187 189 189 192 195 194
333 331 329 328 327 328 327 327 326 325 327 325 318 316 316 317 316 313 301 297 300 298 290 270 249 244 249 266 280 289 285 279 275 285 316 330 325 307 284 279 259 249 246 242 242 226 199 212 228 232 244 232 238 288 346 331 326 150 180 202 193 203 271 291 219 171 177 213 186 176 242 262 260 246 244 253 235 214 196 182 185 188 188 189 189 189 192 194
333 332 331 329 328 329 329 329 328 326 327 324 320 318 319 320 318 311 303 303 302 292 278 255 239 233 248 276 284 286 280 272 275 295 304 300 315 311 310 310 278 239 230 230 233 230 218 233 241 220 224 210 201 184 51 313 277 225 203 188 183 199 233 291 267 194 182 190 189 193 218 268 268 237 235 238 225 215 201 184 185 188 189 188 188 188 189 193
335 333 331 331 330 331 330 329 328 326 324 322 320 321 323 322 318 311 305 302 301 297 276 249 239 234 249 269 277 276 275 278 285 288 282 290 301 303 308 305 288 232 216 220 226 230 226 222 214 213 218 194 156 137 142 220 218 219 183 170 195 184 170 205 273 242 186 193 211 210 217 238 270 267 239 219 210 207 196 187 186 185 189 188 186 186 189 194
335 333 332 331 330 330 329 328 326 325 321 319 319 323 324 321 317 308 296 289 307 333 291 231 214 237 252 257 268 278 284 292 289 280 281 292 296 298 299 293 288 239 203 207 220 220 215 212 188 173 198 189 180 171 187 216 194 169 147 172 198 154 176 189 220 230 181 202 217 198 217 240 257 277 267 226 198 197 199 194 188 185 188 188 185 185 189 196
332 331 331 330 329 328 327 326 325 323 321 319 319 323 325 325 327 312 273 268 281 296 277 234 212 234 262 264 274 283 288 291 291 287 283 287 294 295 286 271 262 222 188 184 206 202 191 198 187 188 201 195 196 186 193 212 147 159 154 166 172 154 200 204 214 229 178 191 221 191 194 230 244 256 260 251 204 192 199 190 182 182 186 189 187 186 190 197
330 328 328 327 326 324 325 324 322 322 322 320 321 326 335 344 347 333 288 281 275 271 270 261 242 247 262 270 277 284 287 287 285 282 283 287 290 289 275 244 223 208 200 169 167 185 176 190 213 205 201 188 192 187 194 235 116 150 147 162 188 171 226 232 230 262 199 180 228 202 182 215 237 241 246 249 213 182 177 165 174 181 184 188 188 189 193 199
329 326 324 324 323 321 322 322 320 322 321 319 321 326 337 341 333 312 310 297 286 281 271 270 262 255 262 270 278 282 283 286 280 271 274 266 244 267 237 191 181 207 205 150 137 171 175 211 222 200 175 168 176 169 188 225 107 135 153 159 191 189 227 244 219 273 207 171 251 203 181 219 236 238 246 237 189 175 175 170 178 182 185 187 186 191 195 200
328 324 323 323 321 318 320 321 319 321 322 321 323 325 326 324 295 296 314 301 292 287 271 275 270 261 267 274 279 279 273 278 276 265 260 244 235 239 189 170 181 198 174 150 148 172 197 224 206 164 148 146 158 158 174 212 191 125 142 145 180 199 235 268 252 298 125 173 271 190 174 230 244 243 258 238 196 210 199 191 191 186 184 183 183 189 194 201
325 323 323 323 320 318 321 321 320 322 327 330 328 327 329 324 292 307 315 298 294 291 272 272 268 263 271 277 285 273 251 252 265 266 260 234 224 218 195 170 188 184 169 180 183 179 206 223 163 152 162 140 153 165 158 197 213 178 129 142 188 199 177 219 252 299 321 177 241 159 173 262 270 277 282 249 227 233 221 209 204 194 187 187 190 194 197 201
324 325 325 325 323 322 323 322 324 328 334 335 330 328 332 312 305 317 319 292 288 293 283 280 271 265 269 279 296 256 235 232 243 269 258 203 197 203 199 174 167 186 192 194 195 194 217 233 156 158 173 161 162 174 167 183 210 200 163 149 170 182 176 193 254 312 323 324 97 138 301 300 276 271 275 264 242 241 233 210 205 200 195 194 195 198 203 206
329 329 328 327 326 323 323 326 330 337 343 346 339 285 304 303 306 319 327 298 268 289 299 303 276 262 265 278 285 255 239 237 237 245 212 182 184 181 186 179 171 199 201 190 198 209 228 254 166 162 176 178 172 180 182 181 192 216 203 172 172 171 165 162 0 25 39 292 279 143 249 283 293 268 244 250 233 236 232 195 197 195 191 191 192 198 206 209
334 332 330 329 326 324 325 328 333 336 347 357 328 296 310 305 310 319 328 293 275 298 322 312 272 259 256 238 280 266 231 258 254 234 197 181 185 177 174 184 184 196 185 176 202 215 216 237 181 171 177 180 188 194 187 175 174 224 198 169 182 183 164 36 34 55 155 236 271 140 188 254 315 295 251 229 193 234 261 231 204 187 184 189 194 201 205 207
337 334 332 329 327 327 323 321 327 332 344 352 339 335 325 321 322 322 328 292 292 300 268 280 263 263 258 249 292 274 206 326 313 232 205 185 181 184 181 177 179 185 157 156 207 203 174 197 218 195 180 182 197 196 185 173 168 231 183 156 171 186 187 124 81 98 203 244 305 347 140 199 284 267 266 257 194 260 281 249 224 189 188 194 198 204 206 207
341 337 334 330 330 332 324 318 327 335 342 346 343 329 330 340 335 341 20 329 321 315 249 242 243 262 269 273 265 238 250 297 347 219 204 186 173 171 178 187 169 172 170 170 200 181 156 188 205 195 191 197 195 170 163 167 168 232 182 156 168 174 161 116 89 109 329 27 302 303 108 178 261 273 301 324 216 268 270 233 220 198 197 200 202 206 208 210
343 339 335 332 334 338 336 333 333 334 335 335 329 316 338 351 343 40 90 318 346 315 254 234 267 267 265 275 258 235 248 270 285 183 186 186 185 156 123 199 168 162 193 191 197 186 157 190 191 181 200 200 167 143 155 167 186 214 168 149 154 158 129 101 92 25 5 343 242 252 246 194 269 280 299 340 221 242 254 242 225 206 204 206 206 207 208 210
343 339 335 334 338 343 346 347 335 325 324 322 315 319 340 5 51 57 326 275 24 263 241 242 278 265 259 281 262 222 218 224 228 174 159 182 193 181 140 177 160 136 195 203 204 234 260 191 189 182 198 180 147 150 161 171 175 146 142 128 116 116 88 81 64 75 55 277 243 215 198 175 275 276 236 214 214 206 218 244 238 212 209 211 210 209 209 209
343 339 338 337 342 347 345 342 334 328 327 322 321 337 347 16 88 97 268 292 316 264 263 286 284 277 297 312 304 181 157 193 220 158 154 174 184 194 161 151 140 76 136 185 212 244 292 207 192 175 175 168 147 162 172 173 169 142 137 127 110 104 56 47 13 61 177 252 264 208 185 161 234 265 243 233 241 214 203 222 220 207 210 211 209 209 209 209
344 340 340 340 343 348 344 340 340 338 339 339 347 2 18 12 23 187 257 336 328 285 306 312 310 319 318 322 339 172 123 185 221 152 159 157 159 194 183 158 156 97 152 190 179 232 267 247 261 179 176 177 161 160 168 174 178 164 147 140 136 138 118 177 214 188 210 246 283 194 170 168 236 249 251 248 250 233 214 217 213 206 211 211 208 208 208 209
344 340 344 344 343 348 345 344 350 349 350 359 4 14 73 15 299 229 268 319 275 293 317 302 306 316 316 325 355 307 343 134 198 166 155 144 152 193 219 196 167 115 152 171 143 169 239 254 257 199 178 179 171 166 171 178 183 179 168 163 162 152 165 199 203 196 232 246 250 188 161 274 268 259 240 235 246 249 236 233 225 217 214 212 210 207 205 207
343 340 353 353 347 348 343 341 352 357 350 349 4 42 74 273 266 260 287 268 251 286 302 306 309 314 329 25 353 312 197 189 173 150 135 140 158 188 212 231 200 103 102 140 151 165 156 226 219 195 184 176 178 186 169 156 172 185 167 140 160 162 166 189 189 183 211 249 250 183 161 192 203 247 235 225 256 278 263 242 230 223 219 210 206 205 204 207
341 333 0 4 359 354 345 338 351 353 334 344 17 73 104 262 267 288 284 269 284 298 302 309 307 308 347 27 325 314 125 183 172 146 131 145 161 180 184 215 204 161 119 145 187 174 153 274 223 191 194 174 174 184 154 145 169 191 139 113 177 184 144 126 161 175 165 144 198 211 213 212 212 259 277 286 296 307 269 217 197 201 206 198 199 202 203 206
343 322 358 6 4 1 353 339 341 326 312 3 37 207 231 244 253 261 267 285 309 313 312 313 312 328 336 340 323 333 7 53 167 152 130 143 157 171 171 205 187 173 171 161 177 161 144 294 250 179 194 192 170 165 170 169 165 164 166 174 189 162 122 110 153 108 94 141 218 218 217 275 308 281 302 6 29 14 37 155 161 177 186 190 201 203 202 204
347 322 350 4 2 4 0 345 333 317 312 30 92 249 238 236 247 244 267 295 300 301 310 317 359 24 333 326 358 345 353 9 209 206 142 144 166 180 178 217 178 181 196 179 183 192 156 253 270 172 185 216 174 162 181 184 159 149 191 193 141 102 92 100 122 13 63 152 248 249 189 245 300 260 305 356 28 337 25 133 143 171 182 196 207 205 202 201
342 322 354 5 1 3 1 351 336 316 305 318 270 273 239 221 236 237 265 293 298 290 290 303 342 31 342 330 342 342 349 354 331 40 146 167 217 188 173 188 210 199 198 173 179 268 164 198 279 184 180 202 170 162 184 197 177 156 172 184 153 141 193 115 123 126 114 159 259 310 225 233 196 220 276 265 223 224 195 160 175 188 196 206 209 205 199 195
342 322 2 5 2 3 357 347 334 313 298 291 289 284 259 265 265 257 267 283 288 276 270 266 261 336 328 318 318 320 315 300 332 29 141 175 218 198 173 171 224 213 176 158 177 295 178 157 264 203 177 157 157 179 187 195 188 137 147 178 173 139 161 163 143 152 152 159 212 259 346 257 228 219 212 215 215 195 175 192 207 208 210 210 207 201 195 191
354 327 350 0 360 359 350 338 325 303 273 268 277 277 284 289 286 280 279 280 277 266 264 268 279 306 311 305 309 313 282 256 308 355 167 176 187 220 185 175 208 211 158 161 192 283 340 163 265 234 175 157 179 203 185 177 171 155 164 179 177 141 122 144 135 129 134 137 171 163 255 257 251 216 196 213 215 190 185 197 208 215 214 212 209 202 194 188
2 333 331 353 355 353 347 339 298 254 257 262 261 264 285 294 296 299 301 296 268 244 240 260 279 283 298 307 315 327 319 297 293 4 328 184 171 215 203 192 192 161 137 154 204 227 280 111 31 306 181 174 174 161 157 167 169 165 166 171 170 156 116 129 174 244 102 122 167 154 184 266 260 201 204 227 210 199 209 211 217 219 213 210 208 202 194 187
359 325 337 352 352 349 348 337 236 259 248 278 296 285 289 295 292 299 312 315 288 244 223 235 258 261 253 266 282 298 305 299 289 355 318 203 191 224 211 198 184 147 132 155 208 202 172 110 48 282 216 205 190 157 156 162 161 153 165 173 162 147 128 139 172 209 133 115 153 133 146 269 258 195 208 248 242 225 229 232 245 244 219 207 198 196 192 187
339 298 331 355 354 354 356 321 266 318 265 290 305 289 282 286 279 294 308 310 308 289 227 226 238 246 208 214 261 289 307 301 260 201 269 273 238 240 211 190 177 147 136 179 205 184 164 140 313 309 263 229 320 162 154 149 147 162 198 181 161 167 160 146 164 181 174 181 168 111 193 271 276 249 212 237 260 260 242 233 232 223 192 189 182 182 182 182
324 298 316 0 5 5 14 15 316 326 313 311 314 299 285 263 236 291 302 303 309 310 289 281 236 196 230 230 244 277 309 299 240 213 245 262 243 255 223 185 181 174 163 187 184 162 177 208 96 45 111 116 73 78 143 161 165 178 196 176 168 173 160 142 126 125 162 202 156 126 219 255 275 309 314 300 290 277 263 238 219 188 161 171 170 168 172 174
333 308 312 351 3 26 60 24 326 309 319 322 320 314 307 284 286 309 303 283 279 280 289 291 236 173 245 257 257 277 276 228 231 267 249 230 257 276 243 183 188 194 192 193 176 160 176 204 135 115 136 152 160 174 181 178 167 153 167 166 170 175 172 171 115 99 176 213 140 142 215 260 294 326 341 344 339 299 290 252 214 194 167 167 165 163 167 169
352 334 315 340 356 37 12 339 311 288 319 326 319 314 322 322 321 322 310 271 258 277 276 272 234 174 230 258 273 281 267 224 232 268 288 275 268 267 241 215 218 215 210 203 181 153 128 225 180 161 173 183 187 196 184 150 143 151 167 171 178 183 179 161 119 144 189 159 164 212 199 259 302 308 315 313 317 310 318 10 148 163 159 164 165 162 165 167
8 359 334 339 343 350 345 335 336 322 309 312 316 303 318 324 321 325 327 308 305 303 279 238 240 257 288 313 311 284 288 281 243 258 296 282 270 287 273 273 272 217 211 204 180 157 51 308 227 192 205 213 209 211 183 152 156 167 161 172 183 171 159 150 156 195 168 126 241 251 181 177 271 277 281 280 285 298 307 44 126 140 149 157 159 159 162 164
15 336 329 340 327 314 335 322 319 322 311 307 305 274 310 326 326 329 327 313 316 312 293 246 258 305 339 341 330 308 304 319 319 298 317 316 315 318 302 104 120 203 201 191 163 157 79 292 241 187 215 239 263 243 187 144 141 154 154 168 178 162 160 171 188 197 160 157 230 223 163 190 249 263 267 259 242 250 259 143 143 145 149 155 157 158 159 161
7 331 315 328 318 288 293 298 302 312 313 313 314 286 315 325 322 323 315 302 316 311 294 308 309 328 335 317 299 302 298 328 345 304 333 342 327 328 61 86 47 204 181 150 120 135 130 268 266 353 338 328 0 12 153 123 101 92 124 154 162 162 171 177 187 189 168 189 226 170 160 221 245 233 242 263 267 199 141 127 138 145 150 155 158 160 162 165
2 346 320 317 308 288 288 294 301 308 307 311 313 306 319 320 318 324 313 276 293 304 316 317 307 314 319 302 288 280 261 287 291 255 300 342 329 346 53 75 4 8 45 98 105 129 205 256 300 44 34 352 16 69 117 115 105 87 54 42 70 115 138 138 143 167 162 186 12 103 129 267 261 230 242 283 67 127 124 123 135 147 153 156 159 164 167 170
358 351 330 314 302 297 300 305 313 308 301 324 329 320 326 321 317 322 310 253 247 274 297 306 303 305 306 296 288 270 253 248 236 233 244 268 279 306 344 346 5 9 359 39 110 164 204 254 326 60 54 353 12 72 105 106 96 79 41 17 16 54 112 126 141 165 171 155 92 79 67 269 267 263 276 96 112 115 112 120 133 147 156 157 160 166 170 174
353 351 343 322 291 300 317 317 319 311 303 339 330 320 314 304 309 318 313 273 254 277 284 287 292 299 296 287 287 277 273 267 253 255 256 251 257 269 274 278 288 284 250 79 60 202 183 186 318 78 75 335 331 15 89 101 84 50 351 348 346 1 111 94 21 8 18 145 126 137 222 254 286 321 331 12 91 103 107 127 140 152 159 162 165 169 174 178